Flag for U.S.A. Weather past 2 weeks in Breckenridge, Colorado, U.S.A.

Now
46 °F

Sunny.


Feels Like: 41 °F
Forecast: 48 / 74 °F
Wind: 12 mph from Southwest

Location: Copper Mountain - Red Cliff Pass

Current Time: Sep 2, 2015 at 7:55:20 AM

Latest Report: Sep 2, 2015 at 7:33 AM


Visibility: 10 mi

Pressure: 30.62 "Hg (21.47 "Hg at 2921m altitude)

Humidity: 57%

Dew point: 32 °F

Location of BreckenridgeLocation

Historic Weather in Breckenridge — Graph

°F

Breckenridge temperature yesterday

Maximum temperature yesterday: 61 °F (at 1:33 PM)
Minimum temperature yesterday: 45 °F (at 4:53 AM)
Average temperature yesterday: 51 °F

Past Weeks' High & Low Weather Summary

 TemperatureHumidityPressure
High73 °F (Aug 25, 2:34 PM)87% (Aug 27, 7:34 PM)30.82 "Hg (Aug 27, 7:34 PM)
Low36 °F (Aug 19, 6:14 AM)12% (Aug 21, 3:54 PM)30.35 "Hg (Aug 18, 6:14 PM)
Average53 °F44%30.62 "Hg
* Reported Aug 18 6:14 AM — Sep 2 6:53 AM, Breckenridge, Weather by CustomWeather, © 2015

Note: Actual official high and low records may vary slightly from our data, if they occured in-between our weather recording intervals... More about our weather records

Advertising

Breckenridge weather history for previous 24 hours

 ConditionsComfort  
Time TempWeatherWind HumidityBarometerVisibility
6:53 AM
Wed, Sep 2
46 °FClear.12 mph57%30.61 "Hg10 mi
6:33 AM46 °FClear.12 mph57%30.60 "Hg10 mi
6:13 AM45 °FClear.10 mph61%30.60 "Hg10 mi
5:53 AM45 °FClear.15 mph61%30.60 "Hg10 mi
5:33 AM45 °FClear.10 mph61%30.59 "Hg10 mi
5:13 AM46 °FClear.13 mph57%30.59 "Hg10 mi
4:53 AM46 °FClear.18 mph57%30.59 "Hg10 mi
4:33 AM46 °FClear.14 mph57%30.59 "Hg10 mi
4:13 AM46 °FClear.20 mph57%30.59 "Hg10 mi
3:53 AM46 °FClear.18 mph57%30.60 "Hg10 mi
3:33 AM46 °FClear.15 mph57%30.60 "Hg10 mi
3:13 AM46 °FClear.13 mph57%30.60 "Hg10 mi
2:53 AM46 °FClear.14 mph57%30.60 "Hg10 mi
2:33 AM46 °FClear.10 mph62%30.60 "Hg10 mi
2:13 AM46 °FClear.12 mph57%30.60 "Hg10 mi
1:53 AM46 °FClear.13 mph57%30.61 "Hg10 mi
1:33 AM46 °FPartly cloudy.17 mph66%30.61 "Hg10 mi
1:13 AM45 °FMostly cloudy.23 mph76%30.61 "Hg10 mi
12:53 AM45 °FOvercast.24 mph76%30.61 "Hg10 mi
12:33 AM45 °FRain. Overcast.14 mph76%30.64 "Hg7 mi
12:13 AM45 °FLow clouds.13 mph81%30.64 "Hg1 mi
11:53 PM
Tue, Sep 1
45 °FLow clouds.8 mph81%30.64 "Hg0 mi
11:33 PM45 °FLight rain. Low clouds.14 mph76%30.64 "Hg0 mi
11:13 PM45 °FRain. Mostly cloudy.25 mph76%30.64 "Hg1 mi
10:53 PM46 °FThundershowers. Partly cloudy.30 mph71%30.62 "Hg7 mi
10:33 PM50 °FThunderstorms. Passing clouds.12 mph58%30.61 "Hg10 mi
10:13 PM50 °FThunderstorms. Passing clouds.12 mph58%30.62 "Hg10 mi
9:53 PM50 °FPassing clouds.10 mph62%30.62 "Hg10 mi
9:33 PM50 °FPassing clouds.12 mph58%30.62 "Hg10 mi
9:13 PM50 °FPartly cloudy.12 mph62%30.62 "Hg10 mi
8:53 PM48 °FLight rain. Overcast.17 mph62%30.62 "Hg10 mi
8:33 PM52 °FRain. Cloudy.25 mph54%30.62 "Hg10 mi
8:13 PM54 °FMore clouds than sun.9 mph47%30.59 "Hg10 mi
7:53 PM54 °FPartly sunny.6 mph47%30.59 "Hg10 mi
7:33 PM54 °FScattered clouds.5 mph44%30.59 "Hg10 mi
7:13 PM54 °FCloudy.5 mph44%30.59 "Hg10 mi
6:53 PM54 °FCloudy.12 mph44%30.59 "Hg10 mi
6:33 PM57 °FBroken clouds.8 mph41%30.59 "Hg10 mi
6:13 PM59 °FBroken clouds.5 mph39%30.59 "Hg10 mi
5:53 PM59 °FCloudy.5 mph39%30.59 "Hg10 mi
5:33 PM55 °FCloudy.7 mph41%30.60 "Hg10 mi
5:13 PM59 °FMostly cloudy.14 mph36%30.59 "Hg10 mi
4:53 PM59 °FBroken clouds.15 mph34%30.59 "Hg10 mi
3:33 PM59 °FMore clouds than sun.21 mph31%30.60 "Hg10 mi
3:13 PM59 °FCloudy.20 mph34%30.60 "Hg10 mi
2:53 PM59 °FMostly cloudy.21 mph34%30.60 "Hg10 mi
2:33 PM59 °FBroken clouds.18 mph31%30.62 "Hg10 mi
2:13 PM59 °FScattered clouds.16 mph31%30.61 "Hg10 mi
1:53 PM61 °FBroken clouds.7 mph29%30.61 "Hg10 mi
1:33 PM61 °FPartly sunny.10 mph27%30.61 "Hg10 mi
1:13 PM59 °FOvercast.8 mph34%30.62 "Hg10 mi
12:53 PM55 °FBroken clouds.10 mph38%30.62 "Hg10 mi
12:33 PM55 °FBroken clouds.16 mph41%30.62 "Hg10 mi
12:13 PM54 °FMostly cloudy.17 mph47%30.62 "Hg10 mi
11:53 AM54 °FThundershowers. Cloudy.17 mph51%30.62 "Hg10 mi
11:33 AM54 °FCloudy.13 mph58%30.62 "Hg10 mi
11:13 AM54 °FCloudy.13 mph58%30.63 "Hg10 mi
10:53 AM54 °FBroken clouds.17 mph54%30.63 "Hg10 mi
10:33 AM54 °FCloudy.10 mph58%30.63 "Hg10 mi
10:13 AM54 °FBroken clouds.10 mph58%30.62 "Hg10 mi
9:53 AM52 °FMostly cloudy.13 mph62%30.62 "Hg10 mi
9:33 AM52 °FPartly sunny.13 mph67%30.62 "Hg10 mi
9:13 AM52 °FPartly sunny.13 mph62%30.62 "Hg10 mi
8:53 AM52 °FScattered clouds.14 mph62%30.60 "Hg10 mi
8:33 AM50 °FScattered clouds.15 mph62%30.60 "Hg10 mi
8:13 AM46 °FBroken clouds.14 mph71%30.59 "Hg10 mi
7:53 AM46 °FScattered clouds.14 mph66%30.60 "Hg10 mi
7:33 AM46 °FScattered clouds.16 mph66%30.59 "Hg10 mi
7:13 AM46 °FClear.20 mph66%30.59 "Hg10 mi
Weather by CustomWeather, © 2015

See weather overviewHow to use our weather pages